BOX12T EGGD-EDDM

Flight info

Callsign BOX12T
Flight time 1h 24m
Altitude 36000
Route YORQI DCT NUCHU L607 KONAN DCT KOK DCT MATUG DCT MOVUM T109 HAREM T104 ROKIL ROKIL1B
Aircraft B77L/H-SDE1E2E3FGHIJ2J3J4J5M1RWXY/LB1D1

Departure

Time 2026-05-06 22:01
Airport Bristol Airport (EGGD)

Arrival

Time 2026-05-06 23:25
Airport Munich Airport (EDDM)
Time Latitude Longitude Altitude Speed Heading
2026-05-06 21:33 51.38526 -2.71796 631 ft 0 kts 86°
2026-05-06 21:47 51.38525 -2.71811 618 ft 3 kts 86°
2026-05-06 21:48 51.38528 -2.71847 618 ft 4 kts 138°
2026-05-06 21:48 51.38550 -2.71858 618 ft 4 kts 179°
2026-05-06 21:48 51.38560 -2.71859 626 ft 1 kts 176°
2026-05-06 21:51 51.38543 -2.71857 618 ft 10 kts 176°
2026-05-06 21:51 51.38464 -2.71857 630 ft 12 kts 187°
2026-05-06 21:51 51.38428 -2.71957 627 ft 12 kts 273°
2026-05-06 21:52 51.38428 -2.72098 622 ft 13 kts 266°
2026-05-06 21:52 51.38421 -2.72241 626 ft 13 kts 265°
2026-05-06 21:52 51.38415 -2.72384 619 ft 13 kts 266°
2026-05-06 21:52 51.38410 -2.72527 630 ft 13 kts 267°
2026-05-06 21:53 51.38406 -2.72668 620 ft 13 kts 267°
2026-05-06 21:53 51.38402 -2.72812 620 ft 13 kts 266°
2026-05-06 21:53 51.38395 -2.72954 631 ft 13 kts 265°
2026-05-06 21:53 51.38387 -2.73103 620 ft 14 kts 265°
2026-05-06 21:54 51.38379 -2.73243 632 ft 3 kts 259°
2026-05-06 21:54 51.38377 -2.73259 621 ft 0 kts 258°
2026-05-06 21:59 51.38346 -2.73323 621 ft 12 kts 216°
2026-05-06 21:59 51.38264 -2.73339 623 ft 12 kts 173°
2026-05-06 22:00 51.38211 -2.73306 624 ft 5 kts 115°
2026-05-06 22:00 51.38212 -2.73292 622 ft 0 kts 86°
2026-05-06 22:00 51.38220 -2.73108 628 ft 58 kts 86°
2026-05-06 22:00 51.38265 -2.71927 630 ft 152 kts 86°
2026-05-06 22:01 51.38334 -2.69885 899 ft 196 kts 88°
2026-05-06 22:01 51.38390 -2.67784 2014 ft 188 kts 88°
2026-05-06 22:01 51.38458 -2.65534 2357 ft 220 kts 87°
2026-05-06 22:01 51.38525 -2.62941 2730 ft 243 kts 86°
2026-05-06 22:02 51.38619 -2.60190 3645 ft 251 kts 85°
2026-05-06 22:02 51.38730 -2.57379 4561 ft 255 kts 80°
2026-05-06 22:02 51.39452 -2.54801 5274 ft 261 kts 45°
2026-05-06 22:02 51.40956 -2.53210 5902 ft 261 kts 24°
2026-05-06 22:03 51.42616 -2.51906 6675 ft 269 kts 27°
2026-05-06 22:03 51.44271 -2.50471 7570 ft 273 kts 28°
2026-05-06 22:03 51.45911 -2.48980 8466 ft 277 kts 30°
2026-05-06 22:03 51.47563 -2.47343 9385 ft 281 kts 31°
2026-05-06 22:04 51.49243 -2.45668 10167 ft 289 kts 31°
2026-05-06 22:04 51.50910 -2.43720 10438 ft 310 kts 47°
2026-05-06 22:04 51.51985 -2.40579 10652 ft 339 kts 76°
2026-05-06 22:04 51.52095 -2.36679 10879 ft 364 kts 96°
2026-05-06 22:05 51.51747 -2.32601 11526 ft 374 kts 97°
2026-05-06 22:05 51.51373 -2.28426 12366 ft 380 kts 97°
2026-05-06 22:05 51.51016 -2.24198 13261 ft 384 kts 97°
2026-05-06 22:05 51.50677 -2.19915 14126 ft 390 kts 96°
2026-05-06 22:06 51.50352 -2.15631 14982 ft 394 kts 96°
2026-05-06 22:06 51.50033 -2.11226 15778 ft 400 kts 96°
2026-05-06 22:06 51.49716 -2.06771 16540 ft 405 kts 96°
2026-05-06 22:06 51.49399 -2.02257 17300 ft 409 kts 96°
2026-05-06 22:07 51.49075 -1.97703 18007 ft 414 kts 96°
2026-05-06 22:07 51.48740 -1.93082 18696 ft 419 kts 96°
2026-05-06 22:07 51.48405 -1.88418 19424 ft 423 kts 96°
2026-05-06 22:07 51.48069 -1.83702 20084 ft 428 kts 96°
2026-05-06 22:08 51.47731 -1.79006 20732 ft 432 kts 96°
2026-05-06 22:08 51.47380 -1.74201 21374 ft 436 kts 96°
2026-05-06 22:08 51.47022 -1.69343 21986 ft 441 kts 97°
2026-05-06 22:08 51.46556 -1.64459 22581 ft 445 kts 101°
2026-05-06 22:09 51.45884 -1.59592 23191 ft 449 kts 103°
2026-05-06 22:09 51.45157 -1.54703 23778 ft 453 kts 103°
2026-05-06 22:09 51.44451 -1.49761 24382 ft 457 kts 103°
2026-05-06 22:10 51.43098 -1.39969 25448 ft 464 kts 102°
2026-05-06 22:10 51.42402 -1.34916 25969 ft 468 kts 102°
2026-05-06 22:10 51.41692 -1.29806 26497 ft 471 kts 103°
2026-05-06 22:10 51.40973 -1.24672 26998 ft 474 kts 103°
2026-05-06 22:11 51.40247 -1.19499 27474 ft 478 kts 103°
2026-05-06 22:11 51.39567 -1.14275 27961 ft 481 kts 99°
2026-05-06 22:11 51.39186 -1.08935 28393 ft 485 kts 94°
2026-05-06 22:11 51.38940 -1.03534 28826 ft 488 kts 94°
2026-05-06 22:12 51.38697 -0.98177 29241 ft 490 kts 94°
2026-05-06 22:12 51.38442 -0.92721 29596 ft 494 kts 95°
2026-05-06 22:12 51.38172 -0.87226 30000 ft 496 kts 95°
2026-05-06 22:12 51.37893 -0.81737 30478 ft 495 kts 95°
2026-05-06 22:13 51.37605 -0.76246 31069 ft 493 kts 95°
2026-05-06 22:13 51.37317 -0.70796 31635 ft 491 kts 95°
2026-05-06 22:13 51.37027 -0.65361 32119 ft 490 kts 95°
2026-05-06 22:13 51.36733 -0.59936 32606 ft 488 kts 95°
2026-05-06 22:14 51.36437 -0.54520 33038 ft 488 kts 95°
2026-05-06 22:14 51.36142 -0.49122 33453 ft 487 kts 95°
2026-05-06 22:14 51.35838 -0.43725 33832 ft 487 kts 95°
2026-05-06 22:14 51.35533 -0.38338 34224 ft 486 kts 95°
2026-05-06 22:15 51.35227 -0.32953 34578 ft 486 kts 95°
2026-05-06 22:15 51.34919 -0.27581 34938 ft 485 kts 95°
2026-05-06 22:15 51.34611 -0.22249 35048 ft 491 kts 95°
2026-05-06 22:15 51.34288 -0.16800 35040 ft 492 kts 95°
2026-05-06 22:16 51.33663 -0.05981 35044 ft 486 kts 95°
2026-05-06 22:16 51.33353 -0.00590 35161 ft 488 kts 95°
2026-05-06 22:16 51.33025 0.04816 35461 ft 488 kts 96°
2026-05-06 22:17 51.32597 0.10201 35839 ft 487 kts 98°
2026-05-06 22:17 51.32091 0.15545 36073 ft 488 kts 99°
2026-05-06 22:17 51.31000 0.26260 36053 ft 486 kts 99°
2026-05-06 22:18 51.29951 0.36816 36030 ft 483 kts 99°
2026-05-06 22:18 51.28921 0.47384 36033 ft 480 kts 100°
2026-05-06 22:19 51.27882 0.57921 36030 ft 481 kts 99°
2026-05-06 22:19 51.26865 0.68495 36029 ft 482 kts 99°
2026-05-06 22:20 51.25817 0.79089 36024 ft 483 kts 99°
2026-05-06 22:20 51.24759 0.89626 36026 ft 485 kts 99°
2026-05-06 22:21 51.23684 1.00248 36017 ft 485 kts 99°
2026-05-06 22:21 51.22597 1.10892 36021 ft 485 kts 99°
2026-05-06 22:22 51.21509 1.21524 36017 ft 486 kts 100°
2026-05-06 22:22 51.20397 1.32146 36017 ft 485 kts 100°
2026-05-06 22:23 51.19290 1.42682 36016 ft 485 kts 100°
2026-05-06 22:23 51.18165 1.53292 36020 ft 485 kts 100°
2026-05-06 22:24 51.17036 1.63885 36021 ft 485 kts 100°
2026-05-06 22:24 51.15892 1.74475 36018 ft 485 kts 100°
2026-05-06 22:25 51.14740 1.85049 36019 ft 484 kts 100°
2026-05-06 22:25 51.13594 1.95533 36015 ft 484 kts 100°
2026-05-06 22:26 51.12703 2.06145 36019 ft 484 kts 95°
2026-05-06 22:26 51.12164 2.16809 36019 ft 483 kts 95°
2026-05-06 22:27 51.11623 2.27452 36019 ft 482 kts 95°
2026-05-06 22:27 51.11046 2.38079 36005 ft 482 kts 95°
2026-05-06 22:28 51.10447 2.48636 36010 ft 483 kts 96°
2026-05-06 22:28 51.09843 2.59282 36001 ft 483 kts 96°
2026-05-06 22:29 51.08842 2.69837 35996 ft 482 kts 105°
2026-05-06 22:29 51.07113 2.80132 36001 ft 482 kts 106°
2026-05-06 22:30 51.05364 2.90351 36005 ft 482 kts 106°
2026-05-06 22:30 51.03613 3.00636 35999 ft 483 kts 105°
2026-05-06 22:31 51.01882 3.10938 36002 ft 482 kts 105°
2026-05-06 22:31 51.00153 3.21216 35996 ft 482 kts 105°
2026-05-06 22:32 50.98398 3.31486 36000 ft 481 kts 106°
2026-05-06 22:32 50.96665 3.41663 35993 ft 481 kts 106°
2026-05-06 22:33 50.94911 3.51895 35987 ft 481 kts 106°
2026-05-06 22:33 50.93152 3.62108 35980 ft 480 kts 106°
2026-05-06 22:34 50.91380 3.72298 35973 ft 479 kts 106°
2026-05-06 22:34 50.89593 3.82468 35993 ft 480 kts 106°
2026-05-06 22:35 50.87832 3.92589 35972 ft 480 kts 106°
2026-05-06 22:35 50.86021 4.02758 35969 ft 479 kts 107°
2026-05-06 22:36 50.84200 4.12911 35975 ft 480 kts 107°
2026-05-06 22:36 50.82386 4.23062 35974 ft 480 kts 107°
2026-05-06 22:37 50.80571 4.33152 35972 ft 481 kts 107°
2026-05-06 22:37 50.78720 4.43327 35962 ft 482 kts 107°
2026-05-06 22:38 50.76874 4.53505 35969 ft 482 kts 107°
2026-05-06 22:38 50.75024 4.63637 35962 ft 479 kts 107°
2026-05-06 22:39 50.73163 4.73746 35966 ft 480 kts 107°
2026-05-06 22:39 50.71304 4.83793 35962 ft 480 kts 107°
2026-05-06 22:40 50.69423 4.93913 35964 ft 481 kts 108°
2026-05-06 22:40 50.67538 5.04023 35963 ft 480 kts 108°
2026-05-06 22:41 50.64682 5.19174 35962 ft 481 kts 108°
2026-05-06 22:42 50.62765 5.29278 35966 ft 481 kts 108°
2026-05-06 22:42 50.60857 5.39301 35956 ft 481 kts 108°
2026-05-06 22:43 50.58919 5.49377 35962 ft 480 kts 109°
2026-05-06 22:43 50.56981 5.59429 35960 ft 479 kts 108°
2026-05-06 22:44 50.55044 5.69444 35952 ft 478 kts 108°
2026-05-06 22:44 50.53099 5.79442 35962 ft 478 kts 109°
2026-05-06 22:45 50.51154 5.89375 35961 ft 478 kts 109°
2026-05-06 22:45 50.49189 5.99357 35941 ft 479 kts 109°
2026-05-06 22:46 50.47218 6.09337 35936 ft 478 kts 109°
2026-05-06 22:46 50.45233 6.19313 35944 ft 479 kts 109°
2026-05-06 22:47 50.43261 6.29237 35926 ft 480 kts 109°
2026-05-06 22:47 50.41253 6.39212 35925 ft 480 kts 110°
2026-05-06 22:48 50.39196 6.49167 35920 ft 480 kts 110°
2026-05-06 22:48 50.37131 6.59114 35925 ft 480 kts 110°
2026-05-06 22:49 50.35056 6.69068 35919 ft 481 kts 110°
2026-05-06 22:49 50.32997 6.78929 35914 ft 479 kts 110°
2026-05-06 22:50 50.30912 6.88823 35912 ft 479 kts 111°
2026-05-06 22:50 50.28825 6.98701 35919 ft 479 kts 111°
2026-05-06 22:51 50.26727 7.08593 35921 ft 478 kts 111°
2026-05-06 22:51 50.24624 7.18460 35923 ft 478 kts 111°
2026-05-06 22:52 50.22524 7.28247 35917 ft 479 kts 111°
2026-05-06 22:52 50.20402 7.38112 35910 ft 479 kts 111°
2026-05-06 22:53 50.18278 7.47954 35909 ft 478 kts 111°
2026-05-06 22:53 50.16139 7.57758 35912 ft 477 kts 112°
2026-05-06 22:54 50.14003 7.67540 35909 ft 476 kts 112°
2026-05-06 22:54 50.11877 7.77244 35906 ft 476 kts 112°
2026-05-06 22:55 50.09727 7.87004 35900 ft 476 kts 112°
2026-05-06 22:55 50.07573 7.96751 35914 ft 476 kts 112°
2026-05-06 22:56 50.05391 8.06493 35905 ft 477 kts 112°
2026-05-06 22:56 50.03219 8.16257 35878 ft 478 kts 112°
2026-05-06 22:57 50.01026 8.26007 35890 ft 477 kts 112°
2026-05-06 22:57 49.98842 8.35666 35881 ft 477 kts 112°
2026-05-06 22:58 49.96641 8.45393 35885 ft 477 kts 113°
2026-05-06 22:58 49.94218 8.54942 35882 ft 473 kts 121°
2026-05-06 22:59 49.90970 8.63749 35899 ft 470 kts 124°
2026-05-06 22:59 49.87706 8.72551 35890 ft 471 kts 123°
2026-05-06 23:00 49.84435 8.81354 35888 ft 471 kts 124°
2026-05-06 23:00 49.81137 8.90050 35890 ft 471 kts 124°
2026-05-06 23:01 49.77833 8.98808 35895 ft 472 kts 124°
2026-05-06 23:01 49.74555 9.07587 35898 ft 471 kts 124°
2026-05-06 23:02 49.71284 9.16340 35893 ft 469 kts 124°
2026-05-06 23:02 49.67999 9.25047 35905 ft 469 kts 125°
2026-05-06 23:03 49.64721 9.33701 35897 ft 471 kts 125°
2026-05-06 23:03 49.61276 9.42270 35892 ft 466 kts 131°
2026-05-06 23:04 49.57107 9.49837 35888 ft 462 kts 136°
2026-05-06 23:04 49.52891 9.57151 35860 ft 448 kts 136°
2026-05-06 23:04 49.50839 9.60736 35430 ft 446 kts 136°
2026-05-06 23:05 49.48806 9.64301 34984 ft 441 kts 136°
2026-05-06 23:05 49.46816 9.67790 34545 ft 438 kts 136°
2026-05-06 23:05 49.44819 9.71287 34085 ft 434 kts 136°
2026-05-06 23:05 49.42835 9.74760 33637 ft 430 kts 136°
2026-05-06 23:06 49.40872 9.78191 33193 ft 426 kts 136°
2026-05-06 23:06 49.38923 9.81592 32738 ft 423 kts 136°
2026-05-06 23:06 49.36988 9.84957 32285 ft 419 kts 136°
2026-05-06 23:06 49.35053 9.88278 31863 ft 416 kts 136°
2026-05-06 23:07 49.33130 9.91562 31407 ft 412 kts 136°
2026-05-06 23:07 49.31223 9.94815 30968 ft 408 kts 136°
2026-05-06 23:07 49.29338 9.98043 30539 ft 405 kts 136°
2026-05-06 23:07 49.27486 10.01206 29915 ft 405 kts 136°
2026-05-06 23:08 49.25570 10.04467 28768 ft 419 kts 136°
2026-05-06 23:08 49.23593 10.07836 27501 ft 433 kts 136°
2026-05-06 23:08 49.21561 10.11291 26624 ft 438 kts 136°
2026-05-06 23:08 49.19524 10.14758 25833 ft 439 kts 135°
2026-05-06 23:09 49.17500 10.18251 25055 ft 439 kts 135°
2026-05-06 23:09 49.15490 10.21740 24416 ft 435 kts 135°
2026-05-06 23:09 49.13501 10.25181 23816 ft 430 kts 135°
2026-05-06 23:09 49.11479 10.28512 23190 ft 426 kts 137°
2026-05-06 23:10 49.09433 10.31763 22522 ft 424 kts 137°
2026-05-06 23:10 49.07386 10.34994 21850 ft 423 kts 137°
2026-05-06 23:10 49.05377 10.38179 21230 ft 422 kts 137°
2026-05-06 23:10 49.03366 10.41414 20621 ft 420 kts 137°
2026-05-06 23:11 49.01366 10.44629 20051 ft 418 kts 136°
2026-05-06 23:11 48.99367 10.47822 19488 ft 415 kts 137°
2026-05-06 23:11 48.97363 10.50955 18910 ft 412 kts 137°
2026-05-06 23:11 48.95368 10.54060 18299 ft 410 kts 137°
2026-05-06 23:12 48.93399 10.57177 17685 ft 407 kts 137°
2026-05-06 23:12 48.91449 10.60290 17076 ft 406 kts 136°
2026-05-06 23:12 48.89512 10.63393 16486 ft 404 kts 136°
2026-05-06 23:12 48.87583 10.66479 15941 ft 401 kts 136°
2026-05-06 23:13 48.85667 10.69535 15395 ft 397 kts 136°
2026-05-06 23:13 48.83792 10.72525 14808 ft 395 kts 136°
2026-05-06 23:13 48.81898 10.75532 14209 ft 392 kts 136°
2026-05-06 23:13 48.80012 10.78517 13588 ft 392 kts 137°
2026-05-06 23:14 48.78121 10.81467 12973 ft 389 kts 137°
2026-05-06 23:14 48.76238 10.84390 12376 ft 386 kts 137°
2026-05-06 23:14 48.74370 10.87306 11802 ft 384 kts 137°
2026-05-06 23:14 48.72517 10.90206 11166 ft 383 kts 137°
2026-05-06 23:15 48.70663 10.93094 10546 ft 382 kts 137°
2026-05-06 23:15 48.68809 10.95970 9983 ft 381 kts 136°
2026-05-06 23:15 48.66962 10.98837 9398 ft 378 kts 136°
2026-05-06 23:15 48.65134 11.01684 8877 ft 375 kts 136°
2026-05-06 23:16 48.63353 11.04458 8763 ft 360 kts 136°
2026-05-06 23:16 48.61662 11.07081 8662 ft 346 kts 136°
2026-05-06 23:16 48.60026 11.09612 8515 ft 323 kts 136°
2026-05-06 23:16 48.58509 11.11957 8182 ft 301 kts 137°
2026-05-06 23:17 48.56980 11.13983 7659 ft 286 kts 144°
2026-05-06 23:17 48.55512 11.16002 7039 ft 287 kts 136°
2026-05-06 23:17 48.54148 11.18197 6686 ft 284 kts 135°
2026-05-06 23:17 48.52815 11.20393 6340 ft 282 kts 135°
2026-05-06 23:18 48.51492 11.22541 6088 ft 278 kts 136°
2026-05-06 23:18 48.50173 11.24648 5892 ft 275 kts 136°
2026-05-06 23:18 48.48869 11.26720 5664 ft 278 kts 136°
2026-05-06 23:18 48.47520 11.28842 5457 ft 280 kts 137°
2026-05-06 23:19 48.46177 11.30944 5226 ft 278 kts 136°
2026-05-06 23:19 48.44849 11.33027 5105 ft 272 kts 136°
2026-05-06 23:19 48.43546 11.35057 5032 ft 270 kts 136°
2026-05-06 23:19 48.42240 11.37093 5012 ft 272 kts 137°
2026-05-06 23:20 48.40920 11.39146 5011 ft 275 kts 136°
2026-05-06 23:20 48.39596 11.41214 5001 ft 273 kts 137°
2026-05-06 23:20 48.38271 11.43270 5012 ft 272 kts 137°
2026-05-06 23:20 48.36957 11.45305 5001 ft 271 kts 137°
2026-05-06 23:21 48.35665 11.47297 5003 ft 267 kts 137°
2026-05-06 23:21 48.34603 11.49585 4986 ft 270 kts 111°
2026-05-06 23:21 48.34325 11.52370 4626 ft 273 kts 84°
2026-05-06 23:21 48.34597 11.55156 4304 ft 264 kts 80°
2026-05-06 23:22 48.34834 11.57821 3961 ft 251 kts 83°
2026-05-06 23:22 48.35020 11.60343 3640 ft 232 kts 84°
2026-05-06 23:22 48.35187 11.62651 3324 ft 213 kts 84°
2026-05-06 23:22 48.35349 11.64764 3050 ft 194 kts 84°
2026-05-06 23:23 48.35499 11.66658 2792 ft 172 kts 85°
2026-05-06 23:23 48.35629 11.68378 2582 ft 163 kts 85°
2026-05-06 23:23 48.35760 11.70084 2387 ft 166 kts 85°
2026-05-06 23:23 48.35895 11.71825 2147 ft 168 kts 85°
2026-05-06 23:24 48.36026 11.73535 1932 ft 165 kts 85°
2026-05-06 23:24 48.36162 11.75228 1718 ft 161 kts 84°
2026-05-06 23:24 48.36292 11.76909 1505 ft 163 kts 84°
2026-05-06 23:24 48.36412 11.78507 1465 ft 142 kts 83°
2026-05-06 23:25 48.36507 11.79752 1465 ft 98 kts 83°
2026-05-06 23:25 48.36566 11.80535 1472 ft 53 kts 86°
2026-05-06 23:25 48.36500 11.80935 1470 ft 34 kts 119°
2026-05-06 23:25 48.36419 11.81180 1470 ft 19 kts 117°
2026-05-06 23:26 48.36314 11.81282 1471 ft 19 kts 172°
2026-05-06 23:26 48.36242 11.81227 1469 ft 11 kts 251°
2026-05-06 23:26 48.36227 11.81077 1468 ft 16 kts 265°
2026-05-06 23:26 48.36215 11.80905 1466 ft 20 kts 262°
2026-05-06 23:27 48.36195 11.80657 1472 ft 26 kts 264°
2026-05-06 23:27 48.36177 11.80389 1468 ft 26 kts 264°
2026-05-06 23:27 48.36155 11.80119 1470 ft 26 kts 262°
2026-05-06 23:27 48.36132 11.79853 1466 ft 26 kts 264°
2026-05-06 23:28 48.36112 11.79584 1468 ft 24 kts 262°
2026-05-06 23:28 48.36066 11.79484 1466 ft 13 kts 187°
2026-05-06 23:28 48.35948 11.79508 1471 ft 18 kts 176°
2026-05-06 23:28 48.35823 11.79534 1467 ft 18 kts 165°
2026-05-06 23:29 48.35804 11.79673 1461 ft 16 kts 83°
2026-05-06 23:29 48.35815 11.79792 1468 ft 17 kts 82°
2026-05-06 23:29 48.35823 11.79969 1471 ft 17 kts 96°
2026-05-06 23:29 48.35737 11.80069 1463 ft 18 kts 171°
2026-05-06 23:30 48.35617 11.80106 1469 ft 18 kts 170°
2026-05-06 23:30 48.35504 11.80144 1462 ft 14 kts 131°
2026-05-06 23:30 48.35505 11.80245 1470 ft 9 kts 83°
2026-05-06 23:30 48.35507 11.80267 1472 ft 0 kts 83°